User: anonymous   Login
Location: La Tine
(46.4708°N, 7.0525°E)
Time: 01:12:51
(UTC+00:00)
Language:

Cosmos 1943 - Orbit

View from above orbital plane
View from above orbital plane
View from above satellite
View from above satellite

Ground track
Ground track

The orbit data is extracted from the following two-line orbital elements,

1 19119U 88039A   20338.22501257  .00000283  00000-0  16998-3 0  9998
2 19119  71.0029 325.0043 0013719 289.3228  81.5672 14.15162851681068
Epoch (UTC): 03 December 2020 05:24:01
Eccentricity: 0.0013719
inclination: 71.0029°
perigee height: 832 km
apogee height: 851 km
right ascension of ascending node: 325.0043°
argument of perigee: 289.3228°
revolutions per day: 14.15162851
mean anomaly at epoch: 81.5672°
orbit number at epoch: 68106

The dashed part of the orbit path shows where the satellite is in the earth's shadow,  

DLR